Location: Unspecified
(0.0000°N, 0.0000°E)
Time: 20:43:38
(UTC+00:00)

IRIDIUM 121 - Visible Passes

Search period start: 14 January 2025 00:00
Search period end: 24 January 2025 00:00
Orbit: 776 x 779 km, 86.4° (Epoch: 14 January)

Date Brightness Start Highest point End Pass type
(mag) Time Alt. Az. Time Alt. Az. Time Alt. Az.
14 Jan ? 05:26:55 10° SE 05:30:25 18° E 05:33:55 10° NE visible
15 Jan ? 19:07:08 10° NW 19:10:48 20° W 19:14:30 10° SW visible
16 Jan ? 18:32:27 10° NNW 18:37:20 43° W 18:42:17 10° SSW visible
17 Jan ? 05:26:00 10° SSE 05:30:29 29° E 05:34:57 10° NNE visible
18 Jan ? 04:54:41 10° ESE 04:57:02 13° E 04:59:23 10° ENE visible
18 Jan ? 19:09:05 10° WNW 19:10:52 12° W 19:12:39 10° WSW visible
19 Jan ? 18:33:06 10° NNW 18:37:25 27° W 18:41:45 10° SW visible
20 Jan ? 05:25:33 10° SSE 05:30:33 47° E 05:35:32 10° NNE visible
21 Jan ? 04:53:11 10° SE 04:57:05 22° E 05:00:59 10° NE visible
22 Jan ? 18:34:16 10° NW 18:37:28 17° W 18:40:42 10° SW visible
23 Jan ? 05:25:24 10° S 05:30:37 78° E 05:35:48 10° N visible
